Regional Weather Roundup
Issued by NWS

Home | Current Version | Previous Version | Text Only | Print | Product List | Glossary On
Versions: 1 2 3 4 5 6 7 8 9 10 11 12 13 14 15 16 17 18 19 20 21 22 23 24 25 26 27 28 29 30 31 32 33 34 35 36 37 38 39 40 41 42 43 44 45 46 47 48 49 50
000
ASUS43 KBIS 210120
RWRND

NORTH DAKOTA REGIONAL WEATHER ROUNDUP
NATIONAL WEATHER SERVICE BISMARCK ND
700 PM CST SAT DEC 20 2014

NOTE: "FAIR" INDICATES FEW OR NO CLOUDS BELOW 12,000 FEET WITH NO
SIGNIFICANT WEATHER AND/OR OBSTRUCTIONS TO VISIBILITY.


NDZ001>003-009>011-017-210200-
NORTHWEST NORTH DAKOTA

CITY           SKY/WX    TMP DP  RH WIND       PRES   REMARKS
WILLISTON      CLEAR     31  26  82 SW9       29.75F
MINOT          PTCLDY    24  22  91 S7        29.75F WCI  16
MINOT AFB      PTCLDY    21  21 100 SE3       29.75F
$$

NDZ018>021-031>035-040>046-210200-
SOUTHWEST NORTH DAKOTA

CITY           SKY/WX    TMP DP  RH WIND       PRES   REMARKS
BISMARCK       CLEAR     24  24 100 E3        29.82F
DICKINSON      PTCLDY    31  23  72 SW5       29.78S
GARRISON         N/A     24  22  91 CALM      29.77F
HETTINGER ARPT MOCLDY    31  24  75 CALM      29.83S
$$

NDZ004>008-012>016-024-026-027-054-210200-
NORTHEAST NORTH DAKOTA

CITY           SKY/WX    TMP DP  RH WIND       PRES   REMARKS
GRAND FORKS    CLOUDY    29  27  92 S13       29.91F WCI  19
GRND FRKS AFB  CLOUDY    28  28 100 S12       29.90F WCI  18
DEVILS LAKE    CLOUDY    27  19  74 S10       29.80F WCI  17
$$

NDZ022-023-025-028>030-036>039-047>053-210200-
SOUTHEAST NORTH DAKOTA

CITY           SKY/WX    TMP DP  RH WIND       PRES   REMARKS
FARGO          CLOUDY    32  28  85 S20       29.93F FOG
JAMESTOWN      CLOUDY    29  26  89 S13       29.84F WCI  19
$$



USA.gov is the U.S. government's official web portal to all federal, state and local government web resources and services.